IRNSS-1E

Last updated on Jan. 19, 2020, 4:37 a.m. UTC

1 41241U 16003A   20017.63035559 -.00000312  00000-0  00000-0 0  9995
2 41241  28.9000  98.7373 0022297 183.9477 172.4034  1.00266636 14580
UTC
Height (km)
Latitude
Longitude
Inclination
Orbital Period
UTC large
Height (km)
Speed (km/s)
/
Latitude / Longitude
Inclination (degrees)
Orbital Period (minutes)
Azimuth
Elevation
Range (km)
Doppler Factor
iOS Compass Heading
iOS Angle

Next 30 passes for location: Hong Kong

Rise time Rise Azimuth (degrees) Set time Set Azimuth (degrees) Duration Max altitude (degrees)

No matching passes for this satellites